Location: Antichan
(42.9728°N, 0.6667°E)
Time: 13:56:40
(UTC+00:00)

Cosmos 2100 Rocket - Pass Details

Date: 15 August 2020
Orbit: 957 x 1000 km, 82.9° (Epoch: 24 September)

Event Time Altitude Azimuth Distance (km) Brightness Sun altitude
Exits shadow 21:36:57 41° 191° (S) 1,366 4.4 -24.4°
Maximum altitude 21:39:19 86° 277° (W) 966 3.9 -24.6°
Drops below altitude 10° 21:45:30 10° 7° (N) 2,699 6.9 -25.3°
Sets 21:48:01 0° 8° (N) 3,652 7.7 -25.6°
